Location: Ponte Samoggia
(44.5667°N, 11.1333°E)
Time: 00:03:27
(UTC+00:00)

CZ-2C R/B - Pass Details

Date: 26 May 2022
Orbit: 667 x 784 km, 98.3° (Epoch: 26 June)

Event Time Altitude Azimuth Distance (km) Brightness Sun altitude
Rises 02:32:27 0° 17° (NNE) 3,268 6.9 -10.1°
Reaches altitude 10° 02:34:51 10° 21° (NNE) 2,326 6.1 -9.7°
Maximum altitude 02:39:55 57° 100° (E) 888 3.1 -9.1°
Drops below altitude 10° 02:44:48 10° 180° (S) 2,247 4.5 -8.4°
Sets 02:47:04 0° 184° (S) 3,148 5.3 -8.1°
